Tracking 29892 objects as of 21-Nov-2024
HD Live streaming from Space Station
objects crossing your sky now

CZ-4B DEB

Track CZ-4B DEB now!
10-day predictions


NORAD ID: 40531
Int'l Code: 2013-057D
Perigee: 587.9 km
Apogee: 873.0 km
Inclination: 75.0 °
Period: 99.3 minutes
Semi major axis: 7101 km
RCS: Unknown
Launch date: October 25, 2013
Source: People's Republic of China (PRC)
Launch site: Jiuquan Satellite Launch Center, China (JSC)

Note: This is SATELLITE DEBRIS
Your satellite tracking list
Your tracking list is empty




NASA's NSSDC Master Catalog

Two Line Element Set (TLE):
1 40531U 13057D   24325.28596247  .00005989  00000-0  11767-2 0  9993
2 40531  74.9716 178.5831 0200736 121.9035 240.1834 14.50713340508352
Source of the keplerian elements: AFSPC